Weather History for KERY - December, 2012

Change the Weather History Date:

Wednesday, December 5, 2012

  Actual Average Record
Temperature  
Mean Temperature 22 °F -  
Max Temperature 28 °F 32 °F 57 °F (2001)
Min Temperature 17 °F 20 °F -3 °F (1926)
Degree Days  
Heating Degree Days 42    
Moisture  
Dew Point 20 °F    
Average Humidity 82    
Maximum Humidity 93    
Minimum Humidity 69    
Precipitation  
Precipitation 0.00 in - - ()
Sea Level Pressure  
Sea Level Pressure 30.31 in    
Wind  
Wind Speed 6 mph (NW)    
Max Wind Speed 13 mph    
Max Gust Speed 17 mph    
Visibility 9 miles    
Events Snow    
Averages and records for this station are not official NWS values.
T = Trace of Precipitation, MM = Missing Value Source: NWS Daily Summary

Daily Weather History Graph

Daily Weather History Graph

Search for Another Location

Airport or City:

Trip Planner

Search our weather history database for the weather conditions in past years. The results will help you decide how hot, cold, wet, or windy it might be!

Date:

Astronomy

Dec. 05, 2012 Rise Set
Actual Time 8:09 AM EST 4:55 PM EST
Civil Twilight 7:35 AM EST 5:30 PM EST
Nautical Twilight 6:57 AM EST 6:08 PM EST
Astronomical Twilight 6:20 AM EST 6:44 PM EST
Moon No Moon Rise 12:16 PM EST (12/5)
Length of Visible Light 9h 55m
Length of Day
8h 46m
Waning Gibbous, 60% of the Moon is Illuminated
Dec 5
Waning Gibbous
Dec 6
Last Quarter
Dec 13
New
Dec 20
First Quarter
Dec 28
Full

Hourly Weather History & Observations

Time (EST) Temp. Windchill Dew Point Humidity Pressure Visibility Wind Dir Wind Speed Gust Speed Precip Events Conditions
12:14 AM 26.6 °F 16.2 °F 24.8 °F 93% 30.12 in 3.0 mi West 11.5 mph - N/A Snow Light Snow
12:35 AM 26.6 °F 17.5 °F 24.8 °F 93% 30.14 in 7.0 mi West 9.2 mph - N/A Snow Light Snow
12:55 AM 26.6 °F 20.0 °F 24.8 °F 93% 30.15 in 1.0 mi WNW 5.8 mph - N/A Snow Snow
1:14 AM 26.6 °F 20.0 °F 24.8 °F 93% 30.15 in 5.0 mi West 5.8 mph - N/A Snow Light Snow
1:35 AM 26.6 °F 20.0 °F 24.8 °F 93% 30.16 in 10.0 mi WNW 5.8 mph - N/A   Overcast
1:54 AM 28.4 °F 22.2 °F 23.0 °F 80% 30.17 in 10.0 mi WNW 5.8 mph - N/A   Overcast
2:14 AM 28.4 °F 18.5 °F 21.2 °F 74% 30.18 in 10.0 mi WNW 11.5 mph 17.3 mph N/A Snow Light Snow
2:54 AM 26.6 °F 17.5 °F 24.8 °F 93% 30.21 in 2.5 mi WNW 9.2 mph - N/A Snow Light Snow
3:15 AM 26.6 °F 20.0 °F 24.8 °F 93% 30.23 in 0.8 mi WNW 5.8 mph - N/A Snow Snow
3:35 AM 26.6 °F 21.2 °F 24.8 °F 93% 30.23 in 1.2 mi NW 4.6 mph - N/A Snow Light Snow
3:54 AM 26.6 °F 15.7 °F 24.8 °F 93% 30.24 in 1.0 mi NW 12.7 mph 17.3 mph N/A Snow Snow
4:15 AM 26.6 °F 17.5 °F 24.8 °F 93% 30.25 in 4.0 mi NW 9.2 mph - N/A Snow Light Snow
4:34 AM 26.6 °F 20.0 °F 21.2 °F 80% 30.25 in 10.0 mi NNW 5.8 mph - N/A   Overcast
4:55 AM 26.6 °F 18.2 °F 19.4 °F 74% 30.26 in 10.0 mi NW 8.1 mph - N/A   Overcast
5:15 AM 24.8 °F 17.9 °F 19.4 °F 80% 30.27 in 10.0 mi NNW 5.8 mph - N/A   Overcast
5:34 AM 24.8 °F 17.9 °F 19.4 °F 80% 30.28 in 4.0 mi WNW 5.8 mph - N/A Snow Light Snow
5:55 AM 24.8 °F 17.9 °F 21.2 °F 86% 30.29 in 10.0 mi WNW 5.8 mph - N/A Snow Light Snow
6:15 AM 24.8 °F 19.1 °F 21.2 °F 86% 30.30 in 10.0 mi WNW 4.6 mph - N/A Snow Light Snow
6:34 AM 24.8 °F 19.1 °F 21.2 °F 86% 30.32 in 10.0 mi NW 4.6 mph - N/A Snow Light Snow
6:55 AM 26.6 °F 20.0 °F 21.2 °F 80% 30.33 in 10.0 mi NNW 5.8 mph - N/A   Overcast
7:15 AM 24.8 °F 16.1 °F 19.4 °F 80% 30.34 in 10.0 mi NNW 8.1 mph - N/A   Overcast
7:34 AM 24.8 °F 16.1 °F 19.4 °F 80% 30.35 in 10.0 mi NNW 8.1 mph - N/A   Overcast
7:55 AM 24.8 °F 17.9 °F 17.6 °F 74% 30.36 in 10.0 mi NNW 5.8 mph - N/A   Overcast
9:35 AM 24.8 °F - 19.4 °F 80% 30.39 in 10.0 mi Calm Calm - N/A   Overcast
9:54 AM 24.8 °F 19.1 °F 19.4 °F 80% 30.40 in 10.0 mi North 4.6 mph - N/A   Overcast
10:15 AM 24.8 °F 16.1 °F 19.4 °F 80% 30.41 in 10.0 mi North 8.1 mph - N/A   Overcast
10:35 AM 26.6 °F 20.0 °F 19.4 °F 74% 30.40 in 10.0 mi North 5.8 mph - N/A   Overcast
10:54 AM 26.6 °F 21.2 °F 19.4 °F 74% 30.40 in 10.0 mi North 4.6 mph - N/A   Overcast
11:15 AM 26.6 °F 21.2 °F 19.4 °F 74% 30.41 in 10.0 mi North 4.6 mph - N/A   Overcast
11:35 AM 26.6 °F 21.2 °F 17.6 °F 69% 30.41 in 10.0 mi North 4.6 mph - N/A   Overcast
11:54 AM 26.6 °F 22.6 °F 19.4 °F 74% 30.41 in 10.0 mi North 3.5 mph - N/A   Overcast
12:15 PM 26.6 °F 22.6 °F 17.6 °F 69% 30.40 in 10.0 mi NNW 3.5 mph - N/A   Overcast
12:35 PM 26.6 °F 22.6 °F 19.4 °F 74% 30.40 in 10.0 mi North 3.5 mph - N/A   Overcast
12:54 PM 26.6 °F 22.6 °F 19.4 °F 74% 30.39 in 10.0 mi NW 3.5 mph - N/A   Overcast
1:15 PM 26.6 °F 22.6 °F 17.6 °F 69% 30.39 in 10.0 mi ENE 3.5 mph - N/A   Overcast
1:35 PM 26.6 °F - 17.6 °F 69% 30.38 in 10.0 mi Calm Calm - N/A   Overcast
1:55 PM 26.6 °F - 17.6 °F 69% 30.38 in 10.0 mi Calm Calm - N/A   Overcast
2:15 PM 26.6 °F - 17.6 °F 69% 30.39 in 10.0 mi Calm Calm - N/A   Scattered Clouds
2:34 PM 26.6 °F - 17.6 °F 69% 30.38 in 10.0 mi Calm Calm - N/A   Scattered Clouds
2:55 PM 26.6 °F - 17.6 °F 69% 30.38 in 10.0 mi Calm Calm - N/A   Clear
3:15 PM 26.6 °F - 17.6 °F 69% 30.37 in 10.0 mi Calm Calm - N/A   Clear
3:34 PM 26.6 °F - 19.4 °F 74% 30.36 in 10.0 mi Calm Calm - N/A   Clear
3:55 PM 26.6 °F - 17.6 °F 69% 30.35 in 10.0 mi Calm Calm - N/A   Clear
4:15 PM 24.8 °F - 17.6 °F 74% 30.36 in 10.0 mi Calm Calm - N/A   Clear
4:34 PM 26.6 °F - 17.6 °F 69% 30.36 in 10.0 mi Calm Calm - N/A   Clear
4:55 PM 24.8 °F - 17.6 °F 74% 30.35 in 10.0 mi Calm Calm - N/A   Clear
5:15 PM 24.8 °F - 19.4 °F 80% 30.34 in 10.0 mi Calm Calm - N/A   Clear
5:34 PM 23.0 °F 18.4 °F 17.6 °F 80% 30.34 in 10.0 mi ESE 3.5 mph - N/A   Clear
5:55 PM 21.2 °F 14.9 °F 17.6 °F 86% 30.32 in 10.0 mi ESE 4.6 mph - N/A   Clear
6:15 PM 21.2 °F 16.4 °F 17.6 °F 86% 30.33 in 10.0 mi SSE 3.5 mph - N/A   Clear
6:35 PM 19.4 °F 14.3 °F 15.8 °F 86% 30.34 in 10.0 mi South 3.5 mph - N/A   Clear
6:55 PM 17.6 °F 10.7 °F 15.8 °F 93% 30.35 in 10.0 mi South 4.6 mph - N/A   Clear
7:14 PM 19.4 °F 12.8 °F 15.8 °F 86% 30.34 in 10.0 mi SSE 4.6 mph - N/A   Clear
7:35 PM 19.4 °F 12.8 °F 17.6 °F 93% 30.33 in 10.0 mi SSE 4.6 mph - N/A   Clear
7:55 PM 19.4 °F 12.8 °F 17.6 °F 93% 30.32 in 10.0 mi SSE 4.6 mph - N/A   Clear
8:14 PM 19.4 °F 14.3 °F 17.6 °F 93% 30.32 in 10.0 mi SSE 3.5 mph - N/A   Clear
8:35 PM 19.4 °F 14.3 °F 15.8 °F 86% 30.31 in 10.0 mi SSE 3.5 mph - N/A   Scattered Clouds
8:55 PM 21.2 °F 14.9 °F 17.6 °F 86% 30.30 in 10.0 mi SSE 4.6 mph - N/A   Mostly Cloudy
9:14 PM 21.2 °F 14.9 °F 19.4 °F 93% 30.28 in 10.0 mi SE 4.6 mph - N/A   Mostly Cloudy
9:35 PM 21.2 °F 14.9 °F 19.4 °F 93% 30.28 in 10.0 mi SSE 4.6 mph - N/A   Scattered Clouds
9:55 PM 21.2 °F 16.4 °F 19.4 °F 93% 30.26 in 10.0 mi SE 3.5 mph - N/A   Mostly Cloudy
10:14 PM 21.2 °F 14.9 °F 19.4 °F 93% 30.26 in 10.0 mi SE 4.6 mph - N/A   Overcast
10:35 PM 23.0 °F 17.0 °F 19.4 °F 86% 30.24 in 10.0 mi ESE 4.6 mph - N/A   Overcast
10:55 PM 23.0 °F 15.8 °F 21.2 °F 93% 30.24 in 10.0 mi ESE 5.8 mph - N/A   Mostly Cloudy
11:14 PM 23.0 °F 18.4 °F 21.2 °F 93% 30.23 in 10.0 mi SE 3.5 mph - N/A   Mostly Cloudy
11:35 PM 24.8 °F 20.5 °F 21.2 °F 86% 30.22 in 10.0 mi South 3.5 mph - N/A   Mostly Cloudy
11:54 PM 28.4 °F 20.4 °F 24.8 °F 86% 30.20 in 10.0 mi SSE 8.1 mph - N/A   Mostly Cloudy